User: anonymous   Login
Location: Eindhoven
(51.4416°N, 5.4697°E)
Time: 00:02:23
(UTC+01:00)
Language:

Hubble Space Telescope - Orbit

View from above orbital plane
View from above orbital plane
View from above satellite
View from above satellite

Ground track
Ground track

The orbit data is extracted from the following two-line orbital elements,

1 20580U 90037B   19317.22776620  .00000484  00000-0  18495-4 0  9994
2 20580  28.4703 316.3162 0002431 273.0166 255.8186 15.09297703423207
Epoch (UTC): 13 November 2019 05:27:59
Eccentricity: 0.0002431
inclination: 28.4703°
perigee height: 536 km
apogee height: 540 km
right ascension of ascending node: 316.3162°
argument of perigee: 273.0166°
revolutions per day: 15.09297703
mean anomaly at epoch: 255.8186°
orbit number at epoch: 42320

The dashed part of the orbit path shows where the satellite is in the earth's shadow,  

DLR